Location: Redwood City
(37.4850°N, 122.2350°W)
Time: 14:11:18
(UTC-07:00)

ISS - Visible Passes

Search period start: 25 October 2014 00:00
Search period end: 03 November 2014 23:00
Orbit: 412 x 416 km, 51.6° (Epoch: 25 October)

Date Brightness Start Highest point End Pass type
(mag) Time Alt. Az. Time Alt. Az. Time Alt. Az.
25 Oct -2.4 18:57:29 10° NNW 19:00:33 33° NNE 19:03:09 13° E visible
25 Oct -0.6 20:34:24 10° WNW 20:36:03 20° WSW 20:36:03 20° WSW visible
26 Oct -2.3 19:44:50 10° WNW 19:48:02 45° SW 19:49:32 26° SSE visible
27 Oct -3.3 18:55:30 10° NW 18:58:51 89° SW 19:02:11 10° SE visible
28 Oct -0.3 19:43:57 10° W 19:45:56 15° SW 19:47:56 10° SSW visible
29 Oct -1.1 18:53:54 10° WNW 18:56:48 28° SW 18:59:41 10° SSE visible
